1507780800.67,40451,11.5,73890.3,-1.17,-2.19,-2.27,0,*5E
1507780801.86,40452,11.5,73884.8,-1.17,-2.27,-2.19,0,*5D
1507780803.07,40453,11.5,73876.3,-1.19,-2.27,-2.27,0,*5F
1507780804.29,40454,11.5,73880.8,-1.19,-2.27,-2.19,0,*55
1507780805.49,40455,11.5,73874.3,-1.21,-2.31,-2.23,0,*51
1507780806.7,40456,11.5,73876.5,-1.19,-2.27,-2.27,0,*5A
1507780807.89,40457,11.5,73874.8,-1.15,-2.15,-2.15,0,*57
1507780809.08,40458,11.5,73874.5,-1.17,-2.27,-2.19,0,*57
1507780810.3,40459,11.5,73878.5,-1.19,-2.27,-2.19,0,*58
1507780811.51,40460,11.44,73872.8,-1.19,-2.27,-2.19,0,*52
1507780812.69,40461,11.5,73878.8,-1.17,-2.27,-2.27,0,*50
1507780813.88,40462,11.5,73876.8,-1.17,-2.19,-2.19,0,*53
1507780815.1,40463,11.5,73876.0,-1.19,-2.19,-2.19,0,*5C
1507780816.31,40464,11.44,73870.8,-1.19,-2.19,-2.19,0,*5B
1507780817.53,40465,11.5,73876.0,-1.19,-2.27,-2.19,0,*57
1507780818.74,40466,11.5,73884.8,-1.19,-2.19,-2.27,0,*54
1507780819.96,40467,11.5,73882.3,-1.19,-2.31,-2.19,0,*52
1507780821.14,40468,11.5,73880.8,-1.17,-2.27,-2.19,0,*54
1507780822.36,40469,11.5,73884.5,-1.19,-2.27,-2.19,0,*5B
1507780823.57,40470,11.5,73874.0,-1.19,-2.19,-2.27,0,*53
1507780824.78,40471,11.5,73878.8,-1.19,-2.19,-2.19,0,*5F
1507780826.0,40472,11.5,73878.3,-1.19,-2.27,-2.15,0,*5D
1507780827.21,40473,11.5,73874.8,-1.19,-2.19,-2.27,0,*50
1507780828.42,40474,11.5,73870.5,-1.19,-2.19,-2.19,0,*5A
1507780829.63,40475,11.5,73866.3,-1.19,-2.19,-2.27,0,*56
1507780830.85,40476,11.5,73868.0,-1.19,-2.27,-2.27,0,*58
1507780832.06,40477,11.5,73882.8,-1.19,-2.31,-2.27,0,*5E
1507780833.28,40478,11.5,73872.8,-1.19,-2.31,-2.31,0,*56
1507780834.49,40479,11.5,73866.5,-1.19,-2.27,-2.27,0,*57
1507780835.68,40480,11.5,73868.8,-1.17,-2.19,-2.19,0,*5F
1507780836.9,40481,11.5,73868.5,-1.19,-2.31,-2.27,0,*57
1507780838.12,40482,11.5,73868.3,-1.19,-2.31,-2.31,0,*53
1507780839.33,40483,11.5,73868.3,-1.19,-2.31,-2.27,0,*55
1507780840.54,40484,11.5,73872.0,-1.19,-2.27,-2.27,0,*55
1507780841.76,40485,11.5,73876.5,-1.19,-2.27,-2.19,0,*59
1507780842.98,40486,11.5,73874.3,-1.19,-2.31,-2.39,0,*5F
1507780844.19,40487,11.5,73878.8,-1.19,-2.39,-2.39,0,*56
1507780845.4,40488,11.5,73876.5,-1.19,-2.27,-2.19,0,*54
1507780846.6,40489,11.5,73878.3,-1.21,-2.23,-2.31,0,*50
1507780847.81,40490,11.5,73874.5,-1.19,-2.31,-2.27,0,*57
1507780849.03,40491,11.5,73874.8,-1.19,-2.31,-2.39,0,*59
1507780850.22,40492,11.5,73878.5,-1.21,-2.35,-2.43,0,*58
1507780851.44,40493,11.5,73874.8,-1.19,-2.31,-2.39,0,*5B
1507780852.66,40494,11.5,73874.0,-1.19,-2.31,-2.31,0,*54
1507780853.88,40495,11.5,73876.0,-1.19,-2.31,-2.27,0,*52
1507780855.09,40496,11.5,73868.8,-1.19,-2.39,-2.27,0,*59
1507780856.3,40497,11.5,73878.5,-1.19,-2.39,-2.27,0,*58
1507780857.49,40498,11.5,73876.5,-1.21,-2.43,-2.35,0,*52
1507780858.71,40499,11.5,73880.5,-1.19,-2.31,-2.31,0,*59
1507780859.9,40500,11.5,73868.8,-1.21,-2.43,-2.35,0,*52
1507780861.12,40501,11.5,73862.3,-1.19,-2.31,-2.31,0,*59
1507780862.32,40502,11.5,73854.3,-1.21,-2.31,-2.31,0,*51
1507780863.52,40503,11.5,73858.0,-1.21,-2.43,-2.31,0,*55
1507780864.73,40504,11.5,73856.3,-1.19,-2.27,-2.27,0,*5C
1507780865.95,40505,11.5,73860.8,-1.21,-2.47,-2.35,0,*53
1507780867.14,40506,11.5,73864.3,-1.21,-2.43,-2.39,0,*58
1507780868.36,40507,11.5,73878.3,-1.19,-2.31,-2.31,0,*5F
1507780869.58,40508,11.5,73876.0,-1.19,-2.39,-2.31,0,*58
1507780870.77,40509,11.5,73882.8,-1.21,-2.43,-2.43,0,*5A
1507780871.98,40510,11.5,73878.0,-1.19,-2.39,-2.31,0,*51
1507780873.17,40511,11.5,73880.3,-1.21,-2.43,-2.35,0,*52
1507780874.39,40512,11.5,73884.5,-1.19,-2.31,-2.35,0,*5F
1507780875.62,40513,11.5,73884.8,-1.21,-2.47,-2.35,0,*54
1507780876.81,40514,11.5,73880.0,-1.21,-2.43,-2.35,0,*57
1507780878.02,40515,11.5,73866.8,-1.19,-2.31,-2.27,0,*5B
1507780879.24,40516,11.5,73880.5,-1.19,-2.31,-2.39,0,*57
1507780880.46,40517,11.5,73876.5,-1.19,-2.31,-2.31,0,*5E
1507780881.68,40518,11.5,73876.0,-1.19,-2.39,-2.31,0,*59
1507780882.9,40519,11.5,73872.0,-1.19,-2.31,-2.31,0,*50
1507780884.1,40520,11.5,73868.3,-1.21,-2.31,-2.35,0,*55
1507780885.29,40521,11.5,73870.0,-1.21,-2.35,-2.35,0,*50
1507780886.48,40522,11.5,73864.3,-1.21,-2.35,-2.35,0,*53
1507780887.67,40523,11.5,73868.0,-1.21,-2.43,-2.35,0,*53
1507780888.89,40524,11.5,73870.3,-1.19,-2.31,-2.43,0,*5B
1507780890.08,40525,11.5,73866.8,-1.21,-2.43,-2.35,0,*55
1507780891.3,40526,11.5,73866.5,-1.19,-2.31,-2.31,0,*5C
1507780892.5,40527,11.5,73864.5,-1.21,-2.43,-2.31,0,*53
1507780893.69,40528,11.5,73864.8,-1.21,-2.43,-2.35,0,*58
1507780894.88,40529,11.5,73868.0,-1.21,-2.35,-2.31,0,*5C
1507780896.08,40530,11.5,73864.8,-1.21,-2.31,-2.31,0,*50
1507780897.3,40531,11.5,73876.3,-1.19,-2.31,-2.27,0,*5D
1507780898.49,40532,11.5,73886.5,-1.21,-2.35,-2.31,0,*56
1507780899.69,40533,11.5,73884.3,-1.21,-2.35,-2.23,0,*54
1507780900.88,40534,11.44,73880.0,-1.21,-2.35,-2.27,0,*57
1507780902.07,40535,11.5,73876.0,-1.21,-2.35,-2.31,0,*51
1507780903.26,40536,11.5,73872.3,-1.21,-2.35,-2.23,0,*51
1507780904.46,40537,11.5,73872.3,-1.21,-2.31,-2.31,0,*57
1507780905.66,40538,11.5,73876.3,-1.21,-2.31,-2.23,0,*5B
1507780906.86,40539,11.5,73882.8,-1.21,-2.35,-2.23,0,*5E
1507780908.05,40540,11.5,73876.5,-1.21,-2.35,-2.31,0,*53
1507780909.25,40541,11.5,73870.5,-1.21,-2.35,-2.31,0,*52
1507780910.44,40542,11.5,73868.8,-1.21,-2.31,-2.23,0,*56
1507780911.66,40543,11.5,73876.3,-1.19,-2.27,-2.19,0,*52
1507780912.85,40544,11.5,73878.3,-1.21,-2.43,-2.31,0,*56
1507780914.05,40545,11.5,73878.5,-1.21,-2.35,-2.31,0,*56
1507780915.26,40546,11.5,73878.8,-1.19,-2.31,-2.27,0,*5D
1507780916.46,40547,11.5,73876.5,-1.21,-2.35,-2.31,0,*54
1507780917.66,40548,11.5,73876.0,-1.21,-2.31,-2.31,0,*5F
1507780918.87,40549,11.5,73876.0,-1.19,-2.27,-2.19,0,*58
1507780920.06,40550,11.5,73876.3,-1.21,-2.35,-2.35,0,*56
1507780921.25,40551,11.5,73878.8,-1.21,-2.35,-2.35,0,*57
1507780922.45,40552,11.5,73878.3,-1.21,-2.35,-2.31,0,*50
1507780923.67,40553,11.5,73882.5,-1.23,-2.39,-2.39,0,*57
1507780924.86,40554,11.5,73882.8,-1.21,-2.31,-2.35,0,*56
1507780926.06,40555,11.5,73882.8,-1.21,-2.31,-2.31,0,*53
1507780927.27,40556,11.5,73882.8,-1.19,-2.27,-2.19,0,*56
1507780928.49,40557,11.5,73884.5,-1.19,-2.27,-2.19,0,*57
1507780929.68,40558,11.44,73884.5,-1.21,-2.35,-2.31,0,*5A
1507780930.89,40559,11.5,73888.8,-1.19,-2.27,-2.27,0,*54
1507780932.09,40560,11.5,73886.0,-1.21,-2.35,-2.23,0,*52
1507780933.31,40561,11.5,73884.5,-1.19,-2.31,-2.19,0,*55
1507780934.5,40562,11.5,73884.0,-1.21,-2.35,-2.31,0,*53
1507780935.7,40563,11.5,73884.8,-1.21,-2.31,-2.31,0,*56
1507780936.9,40564,11.5,73880.5,-1.21,-2.31,-2.31,0,*51
1507780938.1,40565,11.44,73870.3,-1.21,-2.31,-2.23,0,*53
1507780939.3,40566,11.5,73870.8,-1.21,-2.31,-2.31,0,*53
1507780940.49,40567,11.5,73878.8,-1.21,-2.31,-2.31,0,*52
1507780941.69,40568,11.5,73882.3,-1.21,-2.31,-2.23,0,*5E
1507780942.88,40569,11.5,73880.8,-1.21,-2.35,-2.35,0,*5C
1507780944.08,40570,11.5,73876.3,-1.21,-2.35,-2.35,0,*54
1507780945.27,40571,11.5,73870.5,-1.21,-2.35,-2.35,0,*55
1507780946.46,40572,11.5,73854.0,-1.21,-2.35,-2.43,0,*57
1507780947.65,40573,11.5,73858.3,-1.21,-2.43,-2.31,0,*52
1507780948.84,40574,11.5,73862.8,-1.21,-2.43,-2.43,0,*50
1507780950.03,40575,11.5,73870.5,-1.21,-2.43,-2.43,0,*51
1507780951.24,40576,11.5,73878.8,-1.23,-2.39,-2.35,0,*5C
1507780952.49,40577,11.5,73880.5,-1.23,-2.47,-2.27,0,*57
1507780953.68,40578,11.5,73884.5,-1.25,-2.39,-2.39,0,*58
1507780954.86,40579,11.5,73886.8,-1.21,-2.43,-2.43,0,*5D
1507780956.08,40580,11.5,73890.0,-1.21,-2.43,-2.47,0,*5F
1507780957.36,40581,11.5,73888.3,-1.23,-2.47,-2.47,0,*58
1507780958.58,40582,11.5,73876.3,-1.23,-2.39,-2.39,0,*5B
1507780959.83,40583,11.5,73884.8,-1.23,-2.47,-2.39,0,*53
1507780961.1,40584,11.5,73878.0,-1.23,-2.51,-2.51,0,*5D
1507780962.32,40585,11.5,73876.3,-1.25,-2.47,-2.39,0,*53
1507780963.57,40586,11.5,73874.0,-1.23,-2.47,-2.39,0,*56
1507780964.82,40587,11.5,73872.3,-1.25,-2.47,-2.47,0,*58
1507780966.09,40588,11.44,73868.0,-1.23,-2.47,-2.47,0,*51
1507780967.34,40589,11.5,73874.0,-1.23,-2.47,-2.39,0,*59
1507780968.62,40590,11.5,73870.5,-1.23,-2.47,-2.47,0,*58
1507780969.87,40591,11.5,73874.5,-1.23,-2.47,-2.39,0,*50
1507780971.12,40592,11.5,73876.3,-1.23,-2.47,-2.39,0,*53
1507780972.34,40593,11.5,73876.5,-1.25,-2.47,-2.39,0,*54
1507780973.61,40594,11.5,73878.3,-1.23,-2.47,-2.47,0,*5C
1507780974.8,40595,11.5,73882.0,-1.25,-2.39,-2.39,0,*5B
1507780976.02,40596,11.5,73882.0,-1.23,-2.39,-2.39,0,*5E
1507780977.2,40597,11.5,73876.0,-1.25,-2.35,-2.39,0,*55
1507780978.45,40598,11.44,73872.0,-1.23,-2.47,-2.39,0,*59
1507780979.67,40599,11.5,73876.5,-1.23,-2.39,-2.39,0,*51
1507780980.92,40600,11.5,73878.0,-1.23,-2.47,-2.39,0,*5B
1507780982.14,40601,11.5,73876.3,-1.23,-2.39,-2.39,0,*53
1507780983.32,40602,11.44,73868.8,-1.25,-2.39,-2.39,0,*56
1507780984.54,40603,11.5,73876.5,-1.25,-2.39,-2.47,0,*5E
1507780985.78,40604,11.5,73874.0,-1.23,-2.47,-2.39,0,*5F
1507780986.97,40605,11.5,73864.8,-1.25,-2.39,-2.39,0,*51
1507780988.19,40606,11.5,73872.8,-1.25,-2.47,-2.39,0,*5B
1507780989.41,40607,11.5,73864.8,-1.23,-2.39,-2.39,0,*55
1507780990.65,40608,11.5,73870.8,-1.23,-2.47,-2.39,0,*53
1507780991.87,40609,11.5,73868.5,-1.25,-2.39,-2.47,0,*54
1507780993.12,40610,11.5,73866.3,-1.23,-2.47,-2.39,0,*5A
1507780994.37,40611,11.5,73860.0,-1.23,-2.47,-2.39,0,*5B
1507780995.65,40612,11.5,73866.8,-1.23,-2.47,-2.51,0,*56
1507780996.92,40613,11.5,73872.3,-1.23,-2.51,-2.47,0,*57
1507780998.14,40614,11.5,73870.5,-1.23,-2.39,-2.39,0,*57
1507780999.35,40615,11.5,73866.0,-1.23,-2.39,-2.39,0,*56
1507781000.6,40616,11.5,73866.5,-1.25,-2.47,-2.47,0,*53
1507781001.79,40617,11.5,73864.3,-1.25,-2.39,-2.39,0,*52
1507781003.0,40618,11.5,73862.5,-1.25,-2.47,-2.39,0,*54
1507781004.19,40619,11.5,73872.3,-1.25,-2.39,-2.39,0,*5C
1507781005.44,40620,11.5,73878.8,-1.23,-2.47,-2.39,0,*59
1507781006.63,40621,11.5,73874.8,-1.25,-2.39,-2.35,0,*5B
1507781007.88,40622,11.5,73876.3,-1.23,-2.47,-2.39,0,*5B
1507781009.09,40623,11.5,73868.3,-1.25,-2.47,-2.39,0,*5C
1507781010.34,40624,11.5,73870.3,-1.25,-2.51,-2.47,0,*55
1507781011.58,40625,11.5,73860.5,-1.25,-2.51,-2.59,0,*5B
1507781012.82,40626,11.5,73868.5,-1.25,-2.59,-2.59,0,*50
1507781014.09,40627,11.5,73882.0,-1.23,-2.51,-2.51,0,*57
1507781015.31,40628,11.5,73884.3,-1.25,-2.51,-2.39,0,*50
1507781016.56,40629,11.5,73874.3,-1.25,-2.47,-2.47,0,*5F
1507781017.77,40630,11.5,73880.8,-1.25,-2.47,-2.39,0,*5E
1507781019.02,40631,11.5,73874.5,-1.25,-2.51,-2.47,0,*51
1507781020.26,40632,11.5,73862.0,-1.25,-2.51,-2.47,0,*52
1507781021.51,40633,11.5,73862.3,-1.25,-2.51,-2.51,0,*54
1507781022.76,40634,11.5,73862.3,-1.25,-2.51,-2.51,0,*53
1507781024.0,40635,11.5,73858.8,-1.27,-2.51,-2.43,0,*53
1507781025.27,40636,11.5,73862.0,-1.27,-2.51,-2.51,0,*53
1507781026.46,40637,11.5,73858.3,-1.25,-2.39,-2.39,0,*50
1507781027.68,40638,11.5,73862.8,-1.25,-2.47,-2.39,0,*56
1507781028.92,40639,11.5,73866.5,-1.27,-2.51,-2.43,0,*5F
1507781030.14,40640,11.5,73868.8,-1.27,-2.43,-2.43,0,*52
1507781031.38,40641,11.5,73874.0,-1.25,-2.47,-2.47,0,*51
1507781032.6,40642,11.5,73874.3,-1.25,-2.47,-2.39,0,*5B
1507781033.85,40643,11.5,73876.0,-1.25,-2.47,-2.47,0,*53
1507781035.04,40644,11.5,73878.3,-1.25,-2.39,-2.39,0,*54
1507781036.22,40645,11.44,73874.3,-1.25,-2.39,-2.39,0,*55
1507781037.41,40646,11.5,73876.0,-1.25,-2.39,-2.39,0,*56
1507781038.63,40647,11.5,73876.8,-1.25,-2.47,-2.39,0,*5E
1507781039.84,40648,11.5,73876.0,-1.27,-2.43,-2.43,0,*5A
1507781041.06,40649,11.5,73866.0,-1.27,-2.43,-2.43,0,*5B
1507781042.25,40650,11.5,73858.8,-1.25,-2.39,-2.35,0,*5D
1507781043.46,40651,11.5,73848.8,-1.27,-2.43,-2.43,0,*52
1507781044.67,40652,11.5,73852.5,-1.27,-2.43,-2.43,0,*51
1507781045.92,40653,11.5,73858.5,-1.27,-2.51,-2.43,0,*53
1507781047.1,40654,11.5,73862.3,-1.25,-2.39,-2.43,0,*58
1507781048.29,40655,11.5,73864.3,-1.25,-2.39,-2.39,0,*54
1507781049.51,40656,11.5,73888.0,-1.25,-2.47,-2.35,0,*52
1507781050.69,40657,11.5,73890.0,-1.25,-2.39,-2.35,0,*5A
1507781051.91,40658,11.5,73878.5,-1.25,-2.51,-2.39,0,*57
1507781053.13,40659,11.5,73878.5,-1.25,-2.47,-2.39,0,*51
1507781054.4,40660,11.5,73862.8,-1.27,-2.51,-2.55,0,*54
1507781055.64,40661,11.5,73866.8,-1.27,-2.51,-2.43,0,*52
1507781056.86,40662,11.44,73874.8,-1.27,-2.43,-2.43,0,*52
1507781058.13,40663,11.5,73880.8,-1.27,-2.51,-2.51,0,*53
1507781059.41,40664,11.5,73872.3,-1.27,-2.63,-2.51,0,*55
1507781060.66,40665,11.5,73872.0,-1.27,-2.51,-2.43,0,*56
1507781061.9,40666,11.5,73876.3,-1.25,-2.47,-2.47,0,*54
1507781063.18,40667,11.5,73876.8,-1.27,-2.51,-2.51,0,*57
1507781064.46,40668,11.5,73878.5,-1.27,-2.55,-2.51,0,*5C
1507781065.67,40669,11.5,73880.0,-1.29,-2.51,-2.43,0,*54
1507781066.93,40670,11.5,73876.3,-1.29,-2.63,-2.51,0,*5E
1507781068.2,40671,11.5,73872.0,-1.27,-2.55,-2.51,0,*54
1507781069.44,40672,11.5,73876.3,-1.27,-2.51,-2.43,0,*50
1507781070.66,40673,11.5,73876.5,-1.27,-2.43,-2.43,0,*52
1507781071.94,40674,11.5,73878.3,-1.27,-2.51,-2.51,0,*55
1507781073.18,40675,11.5,73874.0,-1.29,-2.51,-2.51,0,*5A
1507781074.46,40676,11.5,73874.5,-1.27,-2.51,-2.51,0,*57
1507781075.74,40677,11.5,73880.3,-1.27,-2.51,-2.51,0,*56
1507781076.98,40678,11.5,73882.0,-1.27,-2.51,-2.43,0,*5A
1507781078.19,40679,11.5,73884.8,-1.27,-2.43,-2.43,0,*58
1507781079.44,40680,11.5,73890.0,-1.29,-2.51,-2.51,0,*50
1507781080.68,40681,11.5,73884.3,-1.27,-2.51,-2.43,0,*5C
1507781081.96,40682,11.5,73878.8,-1.27,-2.55,-2.51,0,*58
1507781083.21,40683,11.5,73880.3,-1.29,-2.55,-2.51,0,*57
1507781084.43,40684,11.5,73876.0,-1.29,-2.55,-2.43,0,*53
1507781085.64,40685,11.5,73876.0,-1.29,-2.51,-2.43,0,*56
1507781086.86,40686,11.5,73878.5,-1.29,-2.51,-2.43,0,*55
1507781088.07,40687,11.5,73878.0,-1.29,-2.51,-2.43,0,*54
1507781089.32,40688,11.5,73876.8,-1.27,-2.51,-2.43,0,*55
1507781090.56,40689,11.5,73878.3,-1.27,-2.55,-2.43,0,*50
1507781091.78,40690,11.5,73872.5,-1.27,-2.43,-2.43,0,*5F
1507781093.02,40691,11.5,73878.3,-1.27,-2.51,-2.43,0,*5D
1507781094.27,40692,11.5,73870.0,-1.29,-2.51,-2.51,0,*53
1507781095.46,40693,11.5,73860.3,-1.29,-2.43,-2.43,0,*52
1507781096.7,40694,11.5,73860.3,-1.27,-2.51,-2.43,0,*58
1507781097.94,40695,11.5,73874.0,-1.27,-2.55,-2.43,0,*5D
1507781099.22,40696,11.5,73872.8,-1.27,-2.55,-2.51,0,*5D
1507781100.49,40697,11.5,73876.3,-1.27,-2.55,-2.51,0,*5C
1507781101.74,40698,11.5,73874.0,-1.29,-2.55,-2.55,0,*59
1507781102.98,40699,11.5,73876.3,-1.29,-2.67,-2.67,0,*58
1507781104.26,40700,11.5,73880.3,-1.27,-2.55,-2.55,0,*57
1507781105.5,40701,11.5,73876.5,-1.29,-2.55,-2.55,0,*58
1507781106.78,40702,11.5,73878.8,-1.27,-2.51,-2.51,0,*55
1507781107.99,40703,11.5,73878.8,-1.29,-2.51,-2.43,0,*59
1507781109.27,40704,11.5,73874.8,-1.27,-2.55,-2.55,0,*53
1507781110.51,40705,11.5,73876.3,-1.29,-2.55,-2.55,0,*5C
1507781111.76,40706,11.5,73880.0,-1.29,-2.55,-2.51,0,*5B
1507781113.01,40707,11.5,73882.8,-1.29,-2.55,-2.55,0,*5E
1507781114.23,40708,11.5,73880.3,-1.29,-2.43,-2.51,0,*52
1507781115.48,40709,11.5,73882.8,-1.29,-2.51,-2.51,0,*50
1507781116.7,40710,11.5,73876.5,-1.29,-2.43,-2.51,0,*5B
1507781117.92,40711,11.5,73874.0,-1.29,-2.51,-2.43,0,*5A
1507781119.17,40712,11.5,73874.8,-1.29,-2.51,-2.51,0,*5A
1507781120.38,40713,11.5,73878.5,-1.29,-2.55,-2.43,0,*5C
1507781121.65,40714,11.5,73878.3,-1.31,-2.59,-2.55,0,*59
1507781122.9,40715,11.5,73878.5,-1.29,-2.55,-2.51,0,*59
1507781124.12,40716,11.5,73872.0,-1.29,-2.51,-2.43,0,*5D
1507781125.39,40717,11.5,73874.3,-1.27,-2.55,-2.51,0,*55
1507781126.64,40718,11.5,73876.5,-1.29,-2.51,-2.51,0,*50
1507781127.86,40719,11.5,73878.3,-1.29,-2.51,-2.43,0,*52
1507781129.11,40720,11.5,73878.8,-1.29,-2.51,-2.51,0,*5B
1507781130.36,40721,11.5,73874.3,-1.29,-2.51,-2.51,0,*5A
1507781131.61,40722,11.5,73872.5,-1.29,-2.51,-2.51,0,*59
1507781132.86,40723,11.5,73878.3,-1.29,-2.51,-2.51,0,*58
1507781134.13,40724,11.5,73874.3,-1.31,-2.55,-2.47,0,*55
1507781135.4,40725,11.5,73872.8,-1.31,-2.55,-2.47,0,*54
1507781136.61,40726,11.5,73874.8,-1.29,-2.51,-2.43,0,*5E
1507781137.83,40727,11.5,73876.0,-1.29,-2.51,-2.43,0,*5F
1507781139.05,40728,11.5,73880.0,-1.29,-2.51,-2.43,0,*50
1507781140.3,40729,11.5,73878.8,-1.29,-2.55,-2.51,0,*56
1507781141.56,40730,11.5,73878.8,-1.31,-2.59,-2.59,0,*53
1507781142.83,40731,11.5,73876.5,-1.31,-2.55,-2.47,0,*51
1507781144.1,40732,11.5,73886.0,-1.31,-2.55,-2.55,0,*51
1507781145.37,40733,11.5,73874.5,-1.31,-2.59,-2.47,0,*5F
1507781146.64,40734,11.5,73876.5,-1.35,-2.59,-2.47,0,*5C
1507781147.89,40735,11.5,73880.0,-1.29,-2.51,-2.51,0,*5F
1507781149.16,40736,11.5,73880.3,-1.31,-2.51,-2.67,0,*50
1507781150.43,40737,11.5,73876.0,-1.31,-2.67,-2.55,0,*55
1507781151.7,40738,11.5,73882.0,-1.31,-2.47,-2.55,0,*58
1507781152.98,40739,11.5,73876.5,-1.31,-2.47,-2.47,0,*5A
1507781154.24,40740,11.5,73876.3,-1.31,-2.59,-2.47,0,*5B
1507781155.52,40741,11.5,73882.5,-1.31,-2.55,-2.47,0,*56
1507781156.78,40742,11.5,73878.8,-1.31,-2.59,-2.47,0,*59
1507781158.06,40743,11.5,73876.8,-1.31,-2.55,-2.47,0,*54
1507781159.33,40744,11.5,73876.0,-1.35,-2.55,-2.55,0,*54
1507781160.6,40745,11.5,73882.5,-1.31,-2.55,-2.55,0,*51
1507781161.87,40746,11.5,73880.0,-1.35,-2.55,-2.55,0,*56
1507781163.14,40747,11.5,73874.8,-1.31,-2.55,-2.55,0,*53
1507781164.42,40748,11.5,73882.3,-1.31,-2.47,-2.47,0,*5C
1507781165.68,40749,11.5,73878.8,-1.31,-2.59,-2.55,0,*51
1507781166.95,40750,11.5,73882.8,-1.31,-2.59,-2.47,0,*5A
1507781168.23,40751,11.5,73880.8,-1.31,-2.47,-2.55,0,*57
1507781169.5,40752,11.5,73882.3,-1.31,-2.55,-2.47,0,*54
1507781170.77,40753,11.5,73880.5,-1.31,-2.55,-2.47,0,*55
1507781172.04,40754,11.5,73884.5,-1.31,-2.55,-2.47,0,*52
1507781173.32,40755,11.5,73880.3,-1.35,-2.47,-2.47,0,*54
1507781174.59,40756,11.5,73882.0,-1.35,-2.47,-2.55,0,*54
1507781175.87,40757,11.5,73886.8,-1.35,-2.55,-2.47,0,*55
1507781177.14,40758,11.5,73880.5,-1.31,-2.47,-2.47,0,*5D
1507781178.38,40759,11.5,73882.0,-1.31,-2.55,-2.43,0,*5B
1507781179.65,40760,11.5,73882.3,-1.31,-2.55,-2.47,0,*55
1507781180.92,40761,11.5,73882.8,-1.35,-2.55,-2.55,0,*53
1507781182.2,40762,11.5,73882.5,-1.31,-2.47,-2.55,0,*57
1507781183.47,40763,11.5,73882.5,-1.31,-2.47,-2.47,0,*55
1507781184.75,40764,11.5,73882.0,-1.31,-2.47,-2.47,0,*52
1507781186.02,40765,11.5,73880.0,-1.31,-2.47,-2.47,0,*53
1507781187.3,40766,11.5,73880.8,-1.31,-2.47,-2.47,0,*50
1507781188.57,40767,11.5,73878.3,-1.35,-2.47,-2.47,0,*55
1507781189.82,40768,11.5,73874.5,-1.35,-2.43,-2.47,0,*5E
1507781191.06,40769,11.5,73876.0,-1.31,-2.47,-2.43,0,*5B
1507781192.31,40770,11.5,73878.8,-1.35,-2.55,-2.43,0,*54
1507781193.55,40771,11.5,73882.5,-1.31,-2.55,-2.43,0,*51
1507781194.82,40772,11.5,73882.8,-1.35,-2.55,-2.55,0,*51
1507781196.06,40773,11.5,73882.3,-1.35,-2.55,-2.43,0,*57
1507781197.34,40774,11.5,73882.5,-1.35,-2.47,-2.47,0,*57
1507781198.61,40775,11.5,73884.3,-1.35,-2.55,-2.47,0,*55
1507781199.89,40776,11.5,73882.8,-1.35,-2.47,-2.55,0,*56
1507781201.16,40777,11.5,73882.3,-1.35,-2.55,-2.47,0,*57
1507781202.44,40778,11.5,73882.5,-1.35,-2.47,-2.47,0,*5B
1507781203.68,40779,11.5,73882.3,-1.31,-2.47,-2.43,0,*5A
1507781204.93,40780,11.5,73880.0,-1.35,-2.47,-2.43,0,*58
1507781206.21,40781,11.5,73886.8,-1.35,-2.47,-2.47,0,*5D
1507781207.48,40782,11.5,73886.5,-1.35,-2.55,-2.47,0,*5D
1507781208.75,40783,11.5,73882.3,-1.31,-2.47,-2.47,0,*5B
1507781210.0,40784,11.5,73886.8,-1.35,-2.47,-2.43,0,*5C
1507781211.25,40785,11.5,73884.8,-1.35,-2.47,-2.43,0,*5D
1507781212.52,40786,11.5,73886.0,-1.31,-2.47,-2.47,0,*5E
1507781213.76,40787,11.5,73886.5,-1.31,-2.47,-2.43,0,*5B
1507781215.01,40788,11.5,73880.8,-1.35,-2.47,-2.43,0,*50
1507781216.29,40789,11.5,73886.0,-1.35,-2.47,-2.47,0,*55
1507781217.56,40790,11.5,73880.5,-1.31,-2.47,-2.47,0,*59
1507781218.84,40791,11.5,73884.3,-1.35,-2.47,-2.47,0,*5C
1507781220.11,40792,11.5,73880.0,-1.31,-2.47,-2.47,0,*5B
1507781221.36,40793,11.5,73882.3,-1.35,-2.47,-2.43,0,*5A
1507781222.58,40794,11.5,73880.5,-1.35,-2.43,-2.35,0,*58
1507781223.86,40795,11.5,73882.5,-1.35,-2.47,-2.47,0,*58
1507781225.1,40796,11.5,73880.3,-1.35,-2.47,-2.43,0,*5F
1507781226.35,40797,11.5,73878.3,-1.35,-2.47,-2.35,0,*5F
1507781227.6,40798,11.5,73878.3,-1.35,-2.47,-2.43,0,*51
1507781228.81,40799,11.5,73880.0,-1.31,-2.43,-2.35,0,*51
1507781230.08,40800,11.5,73880.3,-1.39,-2.59,-2.47,0,*58
1507781231.36,40801,11.5,73878.5,-1.39,-2.51,-2.47,0,*51
1507781232.6,40802,11.5,73882.8,-1.35,-2.55,-2.43,0,*5E
1507781233.85,40803,11.5,73878.5,-1.35,-2.47,-2.43,0,*5C
1507781235.12,40804,11.5,73878.8,-1.39,-2.51,-2.47,0,*54
1507781236.4,40805,11.5,73878.8,-1.39,-2.47,-2.47,0,*52
1507781237.62,40806,11.5,73878.0,-1.39,-2.39,-2.39,0,*51
1507781238.83,40807,11.5,73876.8,-1.35,-2.43,-2.43,0,*5C
1507781240.08,40808,11.5,73880.0,-1.35,-2.47,-2.43,0,*57
1507781241.35,40809,11.5,73878.8,-1.39,-2.51,-2.47,0,*59
1507781242.6,40810,11.5,73880.3,-1.35,-2.47,-2.35,0,*5F
1507781243.85,40811,11.5,73882.3,-1.35,-2.43,-2.47,0,*5F
1507781245.12,40812,11.5,73880.8,-1.39,-2.51,-2.47,0,*53
1507781246.4,40813,11.5,73882.0,-1.39,-2.47,-2.47,0,*55
1507781247.67,40814,11.5,73882.3,-1.39,-2.51,-2.47,0,*55
1507781248.95,40815,11.5,73884.8,-1.39,-2.51,-2.47,0,*54
1507781250.23,40816,11.5,73886.0,-1.39,-2.47,-2.47,0,*50
1507781251.48,40817,11.5,73886.3,-1.39,-2.47,-2.39,0,*58
1507781252.75,40818,11.5,73888.5,-1.39,-2.47,-2.47,0,*5E
1507781254.03,40819,11.5,73878.3,-1.39,-2.51,-2.47,0,*58
1507781255.24,40820,11.5,73874.5,-1.35,-2.43,-2.43,0,*59
1507781256.46,40821,11.5,73874.3,-1.35,-2.43,-2.43,0,*58
1507781257.74,40822,11.5,73870.3,-1.39,-2.47,-2.51,0,*50
1507781258.98,40823,11.5,73874.8,-1.39,-2.51,-2.39,0,*58
1507781260.23,40824,11.5,73876.8,-1.39,-2.51,-2.39,0,*5F
1507781261.48,40825,11.5,73874.8,-1.39,-2.47,-2.39,0,*59
1507781262.73,40826,11.5,73872.0,-1.39,-2.51,-2.39,0,*5D
1507781263.97,40827,11.5,73874.5,-1.39,-2.51,-2.39,0,*5C
1507781265.19,40828,11.5,73874.0,-1.31,-2.43,-2.35,0,*54
1507781266.41,40829,11.5,73876.3,-1.35,-2.43,-2.43,0,*50
1507781267.68,40830,11.5,73874.8,-1.39,-2.51,-2.51,0,*54
1507781268.93,40831,11.5,73878.8,-1.39,-2.47,-2.39,0,*5C
1507781270.21,40832,11.5,73878.3,-1.39,-2.47,-2.47,0,*56
1507781271.48,40833,11.5,73878.5,-1.39,-2.51,-2.47,0,*50
1507781272.76,40834,11.5,73886.8,-1.39,-2.47,-2.47,0,*50
1507781274.01,40835,11.5,73880.5,-1.39,-2.47,-2.39,0,*58
1507781275.29,40836,11.5,73882.0,-1.39,-2.47,-2.51,0,*55
1507781276.57,40837,11.5,73876.8,-1.39,-2.51,-2.51,0,*53
1507781277.84,40838,11.5,73878.0,-1.39,-2.51,-2.47,0,*5B
1507781279.09,40839,11.5,73876.3,-1.39,-2.51,-2.39,0,*53
1507781280.36,40840,11.5,73878.3,-1.39,-2.59,-2.47,0,*5C
1507781281.63,40841,11.5,73874.0,-1.39,-2.51,-2.47,0,*55
1507781282.91,40842,11.5,73876.0,-1.39,-2.51,-2.47,0,*56
1507781284.18,40843,11.5,73874.3,-1.39,-2.51,-2.47,0,*57
1507781285.46,40844,11.5,73882.5,-1.39,-2.51,-2.47,0,*50
1507781286.73,40845,11.5,73882.3,-1.39,-2.59,-2.51,0,*5E
1507781288.0,40846,11.5,73878.3,-1.39,-2.59,-2.51,0,*5D
1507781289.28,40847,11.5,73880.5,-1.39,-2.59,-2.51,0,*5C
1507781290.52,40848,11.5,73880.8,-1.41,-2.51,-2.55,0,*50
1507781291.77,40849,11.5,73886.0,-1.41,-2.55,-2.55,0,*55
1507781293.04,40850,11.5,73876.5,-1.39,-2.59,-2.51,0,*5A
1507781294.32,40851,11.5,73876.0,-1.39,-2.59,-2.51,0,*5B
1507781295.59,40852,11.5,73876.0,-1.39,-2.51,-2.47,0,*57
1507781296.87,40853,11.5,73876.8,-1.39,-2.51,-2.47,0,*56
1507781298.11,40854,11.5,73872.5,-1.35,-2.47,-2.43,0,*5E
1507781299.36,40855,11.5,73860.8,-1.41,-2.55,-2.55,0,*58
1507781300.63,40856,11.5,73864.0,-1.39,-2.51,-2.47,0,*53
1507781301.9,40857,11.5,73866.0,-1.39,-2.59,-2.47,0,*5A
1507781303.17,40858,11.5,73870.3,-1.39,-2.59,-2.47,0,*55
1507781304.45,40859,11.5,73872.5,-1.39,-2.51,-2.47,0,*5C
1507781305.72,40860,11.5,73872.3,-1.39,-2.59,-2.47,0,*5E
1507781306.99,40861,11.5,73874.3,-1.39,-2.51,-2.47,0,*57
1507781308.27,40862,11.5,73874.8,-1.39,-2.51,-2.47,0,*54
1507781309.51,40863,11.5,73876.5,-1.35,-2.47,-2.43,0,*5A
1507781310.76,40864,11.5,73872.8,-1.39,-2.51,-2.39,0,*5B
1507781312.01,40865,11.5,73876.3,-1.41,-2.55,-2.51,0,*5F
1507781313.29,40866,11.5,73872.0,-1.39,-2.51,-2.47,0,*50
1507781314.56,40867,11.5,73874.0,-1.39,-2.51,-2.47,0,*51
1507781315.83,40868,11.5,73878.5,-1.39,-2.59,-2.59,0,*59
1507781317.1,40869,11.5,73870.0,-1.39,-2.51,-2.59,0,*50
1507781318.37,40870,11.5,73868.0,-1.39,-2.51,-2.47,0,*57
1507781319.65,40871,11.5,73874.0,-1.39,-2.63,-2.59,0,*58